Location: Dötzum
(52.0808°N, 9.8063°E)
Time: 04:25:24
(UTC+00:00)

Resurs 1-4 Rocket - Pass Details

Date: 27 May 2022
Orbit: 800 x 814 km, 98.7° (Epoch: 24 June)

Event Time Altitude Azimuth Distance (km) Brightness Sun altitude
Rises 00:55:09 0° 17° (NNE) 3,324 7.2 -13.6°
Reaches altitude 10° 00:57:31 10° 20° (NNE) 2,390 6.0 -13.5°
Maximum altitude 01:02:47 67° 103° (ESE) 873 2.3 -13.2°
Enters shadow 01:07:02 16° 184° (S) 2,000 3.6 -12.9°
